EZY53BU EGKK-GCTS

Flight info

Callsign EZY53BU
Flight time N/A
Altitude 35000
Route NOVMA L620 SAM M195 LORKU DCT POZOF DCT BALDA DCT ABUPI DCT EKMAR DCT BEXAL UN866 KONBA
Aircraft A21N/M-SDE2E3FGHIJ1RWXYZ/LB1G1

Departure

Time 2026-04-14 11:13
Airport London Gatwick Airport (EGKK)

Arrival

Time N/A
Airport Tenerife Sur Airport (GCTS)
Time Latitude Longitude Altitude Speed Heading
2026-04-14 10:32 51.15772 -0.17942 211 ft 0 kts 32°
2026-04-14 11:00 51.15772 -0.17943 209 ft 0 kts 32°
2026-04-14 11:01 51.15761 -0.17954 219 ft 3 kts 32°
2026-04-14 11:01 51.15745 -0.17970 214 ft 2 kts 32°
2026-04-14 11:01 51.15728 -0.17984 213 ft 3 kts 11°
2026-04-14 11:01 51.15712 -0.17983 212 ft 3 kts 327°
2026-04-14 11:02 51.15702 -0.17964 215 ft 3 kts 280°
2026-04-14 11:02 51.15701 -0.17942 211 ft 1 kts 257°
2026-04-14 11:02 51.15704 -0.17919 215 ft 3 kts 257°
2026-04-14 11:02 51.15706 -0.17906 214 ft 0 kts 257°
2026-04-14 11:05 51.15704 -0.17923 214 ft 3 kts 257°
2026-04-14 11:05 51.15697 -0.17973 215 ft 6 kts 258°
2026-04-14 11:05 51.15687 -0.18054 216 ft 8 kts 258°
2026-04-14 11:06 51.15673 -0.18153 212 ft 10 kts 257°
2026-04-14 11:06 51.15656 -0.18274 211 ft 13 kts 258°
2026-04-14 11:06 51.15635 -0.18427 209 ft 15 kts 257°
2026-04-14 11:06 51.15612 -0.18602 212 ft 17 kts 258°
2026-04-14 11:07 51.15581 -0.18791 211 ft 19 kts 225°
2026-04-14 11:07 51.15458 -0.18795 213 ft 19 kts 169°
2026-04-14 11:07 51.15323 -0.18749 212 ft 20 kts 167°
2026-04-14 11:07 51.15183 -0.18701 213 ft 21 kts 168°
2026-04-14 11:08 51.15110 -0.18863 215 ft 22 kts 263°
2026-04-14 11:08 51.15078 -0.19105 212 ft 23 kts 257°
2026-04-14 11:08 51.15044 -0.19358 210 ft 24 kts 257°
2026-04-14 11:08 51.15008 -0.19621 212 ft 25 kts 258°
2026-04-14 11:09 51.14970 -0.19894 217 ft 26 kts 257°
2026-04-14 11:09 51.14931 -0.20179 211 ft 27 kts 257°
2026-04-14 11:09 51.14891 -0.20467 210 ft 22 kts 258°
2026-04-14 11:10 51.14747 -0.20846 212 ft 22 kts 257°
2026-04-14 11:10 51.14713 -0.21093 212 ft 23 kts 257°
2026-04-14 11:10 51.14679 -0.21302 214 ft 14 kts 225°
2026-04-14 11:10 51.14631 -0.21331 211 ft 5 kts 178°
2026-04-14 11:11 51.14595 -0.21319 211 ft 6 kts 159°
2026-04-14 11:11 51.14550 -0.21275 215 ft 9 kts 137°
2026-04-14 11:11 51.14521 -0.21179 207 ft 11 kts 91°
2026-04-14 11:11 51.14536 -0.21048 214 ft 13 kts 78°
2026-04-14 11:12 51.14557 -0.20893 213 ft 21 kts 78°
2026-04-14 11:12 51.14642 -0.20284 216 ft 91 kts 78°
2026-04-14 11:12 51.14821 -0.18974 213 ft 149 kts 78°
2026-04-14 11:12 51.15078 -0.17209 484 ft 166 kts 81°
2026-04-14 11:13 51.15331 -0.15350 969 ft 175 kts 84°
2026-04-14 11:13 51.15575 -0.13424 1583 ft 182 kts 83°
2026-04-14 11:13 51.15852 -0.11388 2064 ft 194 kts 84°
2026-04-14 11:13 51.16154 -0.09208 2582 ft 207 kts 83°
2026-04-14 11:14 51.16712 -0.06943 2931 ft 238 kts 58°
2026-04-14 11:14 51.18014 -0.05259 3040 ft 248 kts 19°
2026-04-14 11:14 51.19718 -0.05016 3671 ft 249 kts 348°
2026-04-14 11:14 51.21353 -0.05828 4455 ft 245 kts 324°
2026-04-14 11:15 51.22510 -0.07693 5183 ft 235 kts 291°
2026-04-14 11:15 51.22880 -0.10200 5746 ft 238 kts 265°
2026-04-14 11:15 51.22623 -0.12904 5973 ft 254 kts 254°
2026-04-14 11:15 51.22222 -0.15660 6044 ft 255 kts 254°
2026-04-14 11:16 51.21842 -0.18425 6620 ft 257 kts 255°
2026-04-14 11:16 51.21477 -0.21246 7354 ft 261 kts 256°
2026-04-14 11:16 51.21123 -0.24109 8124 ft 264 kts 257°
2026-04-14 11:16 51.20772 -0.27007 8900 ft 268 kts 257°
2026-04-14 11:17 51.20427 -0.29914 9650 ft 272 kts 258°
2026-04-14 11:17 51.20075 -0.32898 10428 ft 274 kts 257°
2026-04-14 11:17 51.19716 -0.35902 11149 ft 277 kts 257°
2026-04-14 11:17 51.19321 -0.38916 11922 ft 278 kts 256°
2026-04-14 11:18 51.18918 -0.41957 12672 ft 281 kts 257°
2026-04-14 11:18 51.18520 -0.45046 13380 ft 285 kts 257°
2026-04-14 11:18 51.18118 -0.48154 14065 ft 289 kts 257°
2026-04-14 11:18 51.17654 -0.51307 14560 ft 297 kts 251°
2026-04-14 11:19 51.16877 -0.54443 14843 ft 313 kts 247°
2026-04-14 11:19 51.15992 -0.57707 15078 ft 329 kts 247°
2026-04-14 11:19 51.15076 -0.61104 15527 ft 337 kts 247°
2026-04-14 11:19 51.14153 -0.64563 16082 ft 342 kts 248°
2026-04-14 11:20 51.13224 -0.68080 16665 ft 346 kts 248°
2026-04-14 11:20 51.12294 -0.71625 17260 ft 349 kts 249°
2026-04-14 11:20 51.11347 -0.75204 17844 ft 353 kts 249°
2026-04-14 11:20 51.10392 -0.78829 18397 ft 357 kts 249°
2026-04-14 11:21 51.09437 -0.82451 18859 ft 361 kts 249°
2026-04-14 11:21 51.08449 -0.86191 19371 ft 363 kts 249°
2026-04-14 11:21 51.07476 -0.89854 19877 ft 366 kts 250°
2026-04-14 11:21 51.06484 -0.93594 20373 ft 367 kts 250°
2026-04-14 11:22 51.05486 -0.97338 20890 ft 369 kts 250°
2026-04-14 11:22 51.04468 -1.01151 21411 ft 370 kts 250°
2026-04-14 11:22 51.03451 -1.04923 21934 ft 372 kts 250°
2026-04-14 11:22 51.02421 -1.08711 22440 ft 374 kts 251°
2026-04-14 11:23 51.01411 -1.12474 22911 ft 376 kts 251°
2026-04-14 11:23 51.00387 -1.16302 23384 ft 378 kts 251°
2026-04-14 11:23 50.99364 -1.20149 23823 ft 380 kts 252°
2026-04-14 11:23 50.98331 -1.24027 24186 ft 382 kts 251°
2026-04-14 11:24 50.97284 -1.27918 24544 ft 384 kts 251°
2026-04-14 11:24 50.96128 -1.31756 24888 ft 390 kts 244°
2026-04-14 11:24 50.94472 -1.35230 25212 ft 401 kts 231°
2026-04-14 11:24 50.92276 -1.38054 25525 ft 411 kts 220°
2026-04-14 11:25 50.89869 -1.40538 25840 ft 415 kts 219°
2026-04-14 11:25 50.87429 -1.43002 26149 ft 416 kts 219°
2026-04-14 11:25 50.84985 -1.45491 26429 ft 418 kts 219°
2026-04-14 11:25 50.82560 -1.47979 26705 ft 420 kts 219°
2026-04-14 11:26 50.78907 -1.51739 27109 ft 423 kts 219°
2026-04-14 11:26 50.73954 -1.56854 27652 ft 427 kts 219°